EDT,Max TemperatureF,Mean TemperatureF,Min TemperatureF,Max Dew PointF,MeanDew PointF,Min DewpointF,Max Humidity, Mean Humidity, Min Humidity, Max Sea Level PressureIn, Mean Sea Level PressureIn, Min Sea Level PressureIn, Max VisibilityMiles, Mean VisibilityMiles, Min VisibilityMiles, Max Wind SpeedMPH, Mean Wind SpeedMPH, Max Gust SpeedMPH,PrecipitationIn, CloudCover, Events, WindDirDegrees
2013-6-1,66,52,39,56,49,37,100,93,70,29.82,29.67,29.59,10,4,0,18,8,25,0.10,7,Fog-Rain,40
2013-6-2,52,44,37,38,36,33,100,79,50,30.04,29.95,29.81,10,8,2,22,15,30,0.08,5,Rain,330
2013-6-3,59,47,35,37,31,22,92,58,26,30.15,30.08,30.03,10,10,10,18,8,24,0.00,0,,319
2013-6-4,63,49,35,35,31,27,85,50,27,30.23,30.19,30.14,10,10,10,10,5,,0.00,2,,82
2013-6-5,59,50,45,43,37,30,90,63,42,30.21,30.16,30.11,10,10,10,15,6,,0.04,8,Rain,95
2013-6-6,62,53,45,46,43,40,93,77,46,30.12,30.09,30.06,10,10,6,9,6,,0.12,6,Rain,85
2013-6-7,69,54,39,45,39,33,93,60,27,30.06,30.01,29.95,10,10,10,10,5,,0.00,2,,326
2013-6-8,73,57,43,43,36,31,86,48,24,30.03,29.98,29.95,10,10,10,10,3,20,0.00,1,,78
2013-6-9,70,56,43,47,41,31,85,57,40,30.08,30.04,29.95,10,10,10,12,6,18,0.00,2,Rain,93
2013-6-10,73,63,53,58,52,44,93,72,55,29.94,29.86,29.81,10,10,6,13,8,,0.00,3,,56
2013-6-11,72,64,55,59,55,49,100,83,44,29.88,29.84,29.81,10,6,0,17,6,23,0.00,3,Fog,285
2013-6-12,77,63,51,50,47,45,86,54,34,29.88,29.86,29.80,10,10,10,14,8,20,0.00,0,,315
2013-6-13,66,56,46,49,46,42,86,67,43,30.15,30.05,29.86,10,10,10,17,13,26,0.00,2,,360
2013-6-14,66,57,48,43,37,32,80,52,30,30.19,30.12,30.02,10,10,10,9,7,,0.00,0,,84
2013-6-15,66,57,48,63,53,28,100,81,41,29.99,29.88,29.79,10,7,0,10,5,,0.03,7,Fog-Rain,229
2013-6-16,75,66,55,63,56,49,100,82,41,29.86,29.79,29.75,10,6,0,20,10,28,0.02,4,Fog-Rain,291
2013-6-17,57,50,41,51,44,38,97,83,53,30.09,29.98,29.86,10,10,9,10,6,,0.00,5,,88
2013-6-18,69,52,37,42,38,35,93,56,31,30.18,30.14,30.08,10,10,10,9,4,,0.00,0,,89
2013-6-19,75,68,61,52,48,47,67,48,37,30.10,30.05,29.98,10,10,10,16,8,22,0.00,4,,260
2013-6-20,69,62,55,63,58,51,100,92,59,30.13,30.09,30.03,10,5,0,16,6,24,1.11,7,Fog-Rain,127
2013-6-21,57,56,55,58,56,54,100,99,94,30.11,30.01,29.93,3,1,0,15,8,24,1.05,8,Fog-Rain-Thunderstorm,80
2013-6-22,,,,,,,,,,30.12,30.04,29.96,,,,,,,0.00,,,-1
2013-6-23,80,71,62,68,65,61,100,87,64,29.97,29.83,29.74,10,6,1,21,8,29,0.18,5,Rain-Thunderstorm,101
2013-6-24,82,71,61,63,58,51,93,65,38,29.90,29.84,29.80,10,10,10,16,8,,0.00,0,,280
2013-6-25,82,71,60,64,60,55,90,71,38,29.83,29.80,29.78,10,10,10,16,6,,0.00,0,,313
2013-6-26,79,67,57,67,62,56,100,91,69,29.83,29.75,29.68,10,5,0,31,8,55,0.63,5,Fog-Rain-Thunderstorm,96
2013-6-27,79,68,59,65,62,58,100,89,54,29.75,29.71,29.67,10,8,0,20,7,20,0.02,5,Fog-Rain-Thunderstorm,292
2013-6-28,71,64,57,63,59,57,100,85,70,29.77,29.69,29.63,10,8,0,10,4,,0.10,7,Fog-Rain,42
2013-6-29,71,62,55,58,49,41,93,65,38,29.95,29.84,29.76,10,10,9,17,6,23,0.03,4,Rain,2
2013-6-30,77,62,48,50,46,39,83,57,27,30.10,30.04,29.95,10,10,10,10,9,,0.00,0,,314